Regional Weather Roundup
Issued by NWS Northern Indiana

Home | Current Version | Previous Version | Graphics & Text | Print | Product List | Glossary On
Versions: 1 2 3 4 5 6 7 8 9 10 11 12 13 14 15 16 17 18 19 20 21 22 23 24 25 26 27 28 29 30 31 32 33 34 35 36 37 38 39 40 41 42 43 44 45 46 47 48 49 50
000
ASUS43 KIWX 170900
RWRIWX

KIWX WEATHER ROUNDUP
NATIONAL WEATHER SERVICE NORTHERN INDIANA
500 AM EDT WED SEP 17 2014

NOTE: "FAIR" INDICATES FEW OR NO CLOUDS BELOW 12,000 FEET WITH NO
SIGNIFICANT WEATHER AND/OR OBSTRUCTIONS TO VISIBILITY.

* THESE STATIONS ARE NOT UNDER NWS QUALITY CONTROL. THEY ALSO MAY NOT
  REPORT WEATHER SUCH AS PRECIPITATION OR FOG.

INZ001>027-171000-
NORTHERN INDIANA

CITY           SKY/WX    TMP DP  RH WIND       PRES   REMARKS
VALPARAISO     FOG       43  42  97 CALM      30.08S VSB 1/2
SOUTH BEND     CLEAR     44  40  85 CALM      30.08S
GOSHEN         CLEAR     44  41  89 CALM      30.07F
ANGOLA*        CLOUDY    41  41 100 CALM      30.07S VSB 1/4
FORT WAYNE     PTCLDY    44  42  93 SW3       30.08F
PERU/GRISSOM   CLEAR     46  46 100 SW2       30.07S FOG

$$
INZ028>050-171000-
CENTRAL INDIANA

CITY           SKY/WX    TMP DP  RH WIND       PRES   REMARKS
LAFAYETTE      PTCLDY    44  44 100 MISG      30.08S FOG
KOKOMO*          N/A     45  43  93 CALM      30.08S VSB 3/4
MUNCIE*        CLEAR     44  42  93 CALM      30.07F FOG
INDIANAPOLIS   PTCLDY    49  48  97 SW5       30.07F FOG

$$
MIZ043>046-050>051-056>058-064>065-071>073-077>080-171000-
SOUTHWEST LOWER MICHIGAN

CITY           SKY/WX    TMP DP  RH WIND       PRES   REMARKS
BATTLE CREEK   CLEAR     41  38  89 CALM      30.07S
BENTON HARBOR  CLEAR     40  39  97 CALM      30.06F
COLDWATER*     PTCLDY    40  40  97 CALM      30.07F
HILLSDALE*     FOG       37  37 100 CALM      30.07S VSB 1/2
HOLLAND        CLEAR     44  41  89 CALM      30.06F
GRAND RAPIDS   CLEAR     41  39  93 S6        30.06F
KALAMAZOO      FOG       39  37  92 CALM      30.07F VSB 3/4
STURGIS*       CLEAR     41  39  93 CALM      30.07S FOG
THREE RIVERS*  FOG       42  41  96 CALM      30.08S VSB 3/4

$$
OHZ001>008-015>018-024>025-171000-
NORTHWEST OHIO

CITY           SKY/WX    TMP DP  RH WIND       PRES   REMARKS
DEFIANCE       CLEAR     43  41  93 CALM      30.08F
FINDLAY        CLEAR     46  42  86 CALM      30.06F
TOLEDO EXPRESS CLEAR     44  42  93 CALM      30.07S
TOLEDO METCALF CLEAR     46  42  86 CALM      30.07F
LIMA           CLEAR     45  42  89 CALM      30.07F

$$
&&


USA.gov is the U.S. government's official web portal to all federal, state and local government web resources and services.